Time,TemperatureF,DewpointF,PressureIn,WindDirection,WindDirectionDegrees,WindSpeedMPH,WindSpeedGustMPH,Humidity,HourlyPrecipIn,Conditions,Clouds,dailyrainin,SoftwareType,DateUTC
2013-07-28 08:12:00,76.0,70.0,29.98,NE,51,3.0,5.0,82,0.00,,,0.00,,2013-07-28 13:12:00,
2013-07-28 08:22:00,77.0,71.0,29.98,ESE,103,5.0,6.0,82,0.00,,,0.00,,2013-07-28 13:22:00,
2013-07-28 08:32:00,77.0,71.0,29.98,ESE,103,5.0,6.0,82,0.00,,,0.00,,2013-07-28 13:32:00,
2013-07-28 08:43:00,78.0,72.0,29.98,ESE,108,3.0,8.0,81,0.00,,,0.00,,2013-07-28 13:43:00,
2013-07-28 08:52:00,78.0,71.0,29.98,ESE,122,5.0,8.0,80,0.00,,,0.00,,2013-07-28 13:52:00,
2013-07-28 09:02:00,78.0,71.0,29.98,ESE,122,5.0,8.0,80,0.00,,,0.00,,2013-07-28 14:02:00,
2013-07-28 09:12:00,78.0,71.0,29.99,East,88,5.0,10.0,79,0.00,,,0.00,,2013-07-28 14:12:00,
2013-07-28 09:23:00,78.0,71.0,29.99,ESE,121,3.0,7.0,79,0.00,,,0.00,,2013-07-28 14:23:00,
2013-07-28 09:33:00,78.0,71.0,29.99,ESE,121,3.0,7.0,79,0.00,,,0.00,,2013-07-28 14:33:00,
2013-07-28 09:43:00,79.0,70.0,29.99,East,85,3.0,9.0,75,0.00,,,0.00,,2013-07-28 14:43:00,
2013-07-28 09:53:00,80.0,71.0,30.00,North,11,4.0,10.0,74,0.00,,,0.00,,2013-07-28 14:53:00,
2013-07-28 10:03:00,80.0,71.0,30.00,North,11,4.0,10.0,74,0.00,,,0.00,,2013-07-28 15:03:00,
2013-07-28 10:13:00,81.0,71.0,30.00,SSE,153,4.0,9.0,72,0.00,,,0.00,,2013-07-28 15:13:00,
2013-07-28 10:22:00,80.0,71.0,30.00,NE,37,5.0,11.0,74,0.00,,,0.00,,2013-07-28 15:22:00,
2013-07-28 10:32:00,80.0,71.0,30.00,NE,37,5.0,11.0,74,0.00,,,0.00,,2013-07-28 15:32:00,
2013-07-28 10:43:00,80.0,71.0,30.00,SE,140,3.0,10.0,73,0.00,,,0.00,,2013-07-28 15:43:00,
2013-07-28 10:53:00,81.0,71.0,30.00,SE,134,4.0,12.0,72,0.00,,,0.00,,2013-07-28 15:53:00,
2013-07-28 11:03:00,81.0,71.0,30.00,SE,134,4.0,12.0,72,0.00,,,0.00,,2013-07-28 16:03:00,
2013-07-28 11:12:00,81.0,71.0,30.00,ENE,67,5.0,8.0,71,0.00,,,0.00,,2013-07-28 16:12:00,
2013-07-28 11:22:00,82.0,71.0,30.00,ENE,74,4.0,11.0,70,0.00,,,0.00,,2013-07-28 16:22:00,
2013-07-28 11:33:00,82.0,71.0,30.00,ENE,74,4.0,11.0,70,0.00,,,0.00,,2013-07-28 16:33:00,
2013-07-28 11:43:00,81.0,71.0,30.00,SSW,192,6.0,10.0,71,0.00,,,0.00,,2013-07-28 16:43:00,
2013-07-28 12:02:00,81.0,71.0,30.00,ESE,115,5.0,10.0,71,0.00,,,0.00,,2013-07-28 17:02:00,
2013-07-28 12:13:00,82.0,71.0,30.00,SE,136,4.0,7.0,69,0.00,,,0.00,,2013-07-28 17:13:00,
2013-07-28 12:23:00,81.0,71.0,29.99,SSE,155,4.0,10.0,71,0.00,,,0.00,,2013-07-28 17:23:00,
2013-07-28 12:32:00,81.0,71.0,29.99,SSE,155,4.0,10.0,71,0.00,,,0.00,,2013-07-28 17:32:00,
2013-07-28 12:43:00,82.0,70.0,29.99,SSW,194,4.0,11.0,67,0.00,,,0.00,,2013-07-28 17:43:00,
2013-07-28 13:03:00,83.0,70.0,29.98,SE,135,4.0,11.0,65,0.00,,,0.00,,2013-07-28 18:03:00,
2013-07-28 13:13:00,83.0,70.0,29.98,South,182,4.0,11.0,66,0.00,,,0.00,,2013-07-28 18:13:00,
2013-07-28 13:22:00,84.0,71.0,29.98,ESE,121,4.0,18.0,65,0.00,,,0.00,,2013-07-28 18:22:00,
2013-07-28 13:33:00,84.0,71.0,29.98,ESE,121,4.0,18.0,65,0.00,,,0.00,,2013-07-28 18:33:00,
2013-07-28 13:43:00,84.0,70.0,29.98,ENE,61,4.0,10.0,64,0.00,,,0.00,,2013-07-28 18:43:00,
2013-07-28 13:52:00,83.0,70.0,29.97,NNE,29,4.0,10.0,65,0.00,,,0.00,,2013-07-28 18:52:00,
2013-07-28 14:02:00,83.0,70.0,29.97,NNE,29,4.0,10.0,65,0.00,,,0.00,,2013-07-28 19:02:00,
2013-07-28 14:12:00,84.0,71.0,29.97,ESE,123,6.0,11.0,65,0.00,,,0.00,,2013-07-28 19:12:00,
2013-07-28 14:22:00,83.0,71.0,29.97,SW,232,5.0,13.0,68,0.00,,,0.00,,2013-07-28 19:22:00,
2013-07-28 14:33:00,83.0,71.0,29.97,SW,232,5.0,13.0,68,0.00,,,0.00,,2013-07-28 19:33:00,
2013-07-28 14:43:00,82.0,71.0,29.96,South,187,6.0,11.0,69,0.00,,,0.00,,2013-07-28 19:43:00,
2013-07-28 14:52:00,83.0,70.0,29.96,East,90,5.0,12.0,66,0.00,,,0.00,,2013-07-28 19:52:00,
2013-07-28 15:03:00,83.0,70.0,29.96,East,90,5.0,12.0,66,0.00,,,0.00,,2013-07-28 20:03:00,
2013-07-28 15:13:00,83.0,70.0,29.96,East,96,5.0,8.0,66,0.00,,,0.00,,2013-07-28 20:13:00,
2013-07-28 15:23:00,83.0,70.0,29.96,ESE,113,5.0,12.0,66,0.00,,,0.00,,2013-07-28 20:23:00,
2013-07-28 15:33:00,83.0,70.0,29.96,ESE,113,5.0,12.0,66,0.00,,,0.00,,2013-07-28 20:33:00,
2013-07-28 15:43:00,82.0,70.0,29.96,ESE,118,6.0,13.0,68,0.00,,,0.00,,2013-07-28 20:43:00,
2013-07-28 15:52:00,82.0,70.0,29.96,East,80,5.0,12.0,67,0.00,,,0.00,,2013-07-28 20:52:00,
2013-07-28 16:03:00,82.0,70.0,29.96,East,80,5.0,12.0,67,0.00,,,0.00,,2013-07-28 21:03:00,
2013-07-28 16:13:00,81.0,71.0,29.95,East,82,5.0,10.0,72,0.00,,,0.00,,2013-07-28 21:13:00,
2013-07-28 16:22:00,81.0,70.0,29.95,East,88,5.0,10.0,70,0.00,,,0.00,,2013-07-28 21:22:00,
2013-07-28 16:33:00,81.0,70.0,29.95,East,88,5.0,10.0,70,0.00,,,0.00,,2013-07-28 21:33:00,
2013-07-28 16:44:00,82.0,71.0,29.95,SSE,159,4.0,9.0,70,0.00,,,0.00,,2013-07-28 21:44:00,
2013-07-28 16:52:00,80.0,70.0,29.95,ENE,69,4.0,13.0,72,0.00,,,0.00,,2013-07-28 21:52:00,
2013-07-28 17:02:00,80.0,70.0,29.95,ENE,69,4.0,13.0,72,0.00,,,0.00,,2013-07-28 22:02:00,
2013-07-28 17:12:00,81.0,71.0,29.94,ENE,74,6.0,9.0,71,0.00,,,0.00,,2013-07-28 22:12:00,
2013-07-28 17:22:00,80.0,71.0,29.95,ESE,113,5.0,10.0,73,0.00,,,0.00,,2013-07-28 22:22:00,
2013-07-28 17:32:00,80.0,71.0,29.95,ESE,113,5.0,10.0,73,0.00,,,0.00,,2013-07-28 22:32:00,
2013-07-28 17:43:00,81.0,70.0,29.95,East,84,5.0,12.0,70,0.00,,,0.00,,2013-07-28 22:43:00,
2013-07-28 17:52:00,80.0,71.0,29.95,East,88,4.0,8.0,75,0.00,,,0.00,,2013-07-28 22:52:00,
2013-07-28 18:03:00,80.0,71.0,29.95,East,88,4.0,8.0,75,0.00,,,0.00,,2013-07-28 23:03:00,
2013-07-28 18:12:00,79.0,71.0,29.96,ESE,103,6.0,11.0,76,0.00,,,0.00,,2013-07-28 23:12:00,
2013-07-28 18:22:00,80.0,71.0,29.96,East,81,4.0,10.0,73,0.00,,,0.00,,2013-07-28 23:22:00,
2013-07-28 18:32:00,80.0,71.0,29.96,East,81,4.0,10.0,73,0.00,,,0.00,,2013-07-28 23:32:00,
2013-07-28 18:43:00,80.0,72.0,29.96,SE,133,4.0,9.0,76,0.00,,,0.00,,2013-07-28 23:43:00,
2013-07-28 18:53:00,79.0,71.0,29.96,East,96,5.0,10.0,76,0.00,,,0.00,,2013-07-28 23:53:00,
2013-07-28 19:03:00,79.0,71.0,29.96,East,96,5.0,10.0,76,0.00,,,0.00,,2013-07-29 00:03:00,
2013-07-28 19:22:00,78.0,71.0,29.97,East,90,3.0,8.0,80,0.00,,,0.00,,2013-07-29 00:22:00,
2013-07-28 19:32:00,78.0,71.0,29.97,East,90,3.0,8.0,80,0.00,,,0.00,,2013-07-29 00:32:00,
2013-07-28 19:43:00,77.0,71.0,29.97,East,79,6.0,8.0,81,0.00,,,0.00,,2013-07-29 00:43:00,
2013-07-28 19:52:00,77.0,71.0,29.97,ENE,72,2.0,6.0,81,0.00,,,0.00,,2013-07-29 00:52:00,
2013-07-28 20:02:00,77.0,71.0,29.97,ENE,72,2.0,6.0,81,0.00,,,0.00,,2013-07-29 01:02:00,
2013-07-28 20:14:00,77.0,71.0,29.98,East,86,4.0,9.0,82,0.00,,,0.00,,2013-07-29 01:14:00,
2013-07-28 20:28:00,77.0,71.0,29.98,East,86,4.0,9.0,82,0.00,,,0.00,,2013-07-29 01:28:00,
2013-07-28 20:45:00,77.0,71.0,29.98,ESE,104,4.0,7.0,82,0.00,,,0.00,,2013-07-29 01:45:00,
2013-07-28 20:57:00,76.0,70.0,29.99,ENE,62,4.0,9.0,82,0.00,,,0.00,,2013-07-29 01:57:00,
2013-07-28 21:14:00,76.0,70.0,29.99,ESE,105,5.0,7.0,82,0.00,,,0.00,,2013-07-29 02:14:00,
2013-07-28 21:37:00,76.0,70.0,30.00,East,85,5.0,8.0,82,0.00,,,0.00,,2013-07-29 02:37:00,
2013-07-28 21:47:00,76.0,70.0,30.01,East,90,4.0,8.0,83,0.00,,,0.00,,2013-07-29 02:47:00,
2013-07-28 21:53:00,76.0,71.0,30.01,East,92,2.0,6.0,84,0.00,,,0.00,,2013-07-29 02:53:00,
2013-07-28 21:56:00,76.0,71.0,30.01,East,98,3.0,6.0,84,0.00,,,0.00,,2013-07-29 02:56:00,
2013-07-28 22:04:00,76.0,71.0,30.01,East,98,3.0,6.0,84,0.00,,,0.00,,2013-07-29 03:04:00,
2013-07-28 22:17:00,76.0,71.0,30.01,East,92,2.0,6.0,84,0.00,,,0.00,,2013-07-29 03:17:00,
2013-07-28 22:24:00,76.0,71.0,30.01,East,92,2.0,6.0,84,0.00,,,0.00,,2013-07-29 03:24:00,
2013-07-28 22:36:00,76.0,71.0,30.01,East,92,2.0,6.0,84,0.00,,,0.00,,2013-07-29 03:36:00,
2013-07-28 22:48:00,76.0,71.0,30.01,East,92,2.0,6.0,84,0.00,,,0.00,,2013-07-29 03:48:00,